TimeEST,TemperatureF,Dew PointF,Humidity,Sea Level PressureIn,VisibilityMPH,Wind Direction,Wind SpeedMPH,Gust SpeedMPH,PrecipitationIn,Events,Conditions,WindDirDegrees,DateUTC
12:15 AM,28.4,18.5,66,30.42,10.0,NNW,3.5,-,N/A,,Mostly Cloudy,330,2013-11-29 05:15:00
12:35 AM,28.4,18.1,65,30.42,10.0,NNW,4.6,-,N/A,,Scattered Clouds,330,2013-11-29 05:35:00
12:54 AM,27.7,18.0,67,30.43,10.0,NW,4.6,-,N/A,,Overcast,310,2013-11-29 05:54:00
1:15 AM,28.4,18.3,66,30.43,10.0,NNW,4.6,-,N/A,,Overcast,340,2013-11-29 06:15:00
1:35 AM,28.4,18.5,66,30.43,10.0,NW,3.5,-,N/A,,Overcast,320,2013-11-29 06:35:00
1:54 AM,28.4,19.8,70,30.44,10.0,NW,3.5,-,N/A,,Overcast,320,2013-11-29 06:54:00
2:15 AM,27.1,20.1,75,30.44,10.0,Calm,Calm,-,N/A,,Overcast,0,2013-11-29 07:15:00
2:35 AM,27.9,20.5,74,30.45,10.0,NW,4.6,-,N/A,,Overcast,320,2013-11-29 07:35:00
2:55 AM,28.4,18.3,66,30.46,10.0,NW,3.5,-,N/A,,Overcast,320,2013-11-29 07:55:00
3:15 AM,29.5,19.6,67,30.47,10.0,West,4.6,-,N/A,,Overcast,260,2013-11-29 08:15:00
3:35 AM,30.9,20.3,65,30.47,10.0,WSW,3.5,-,N/A,,Overcast,250,2013-11-29 08:35:00
3:55 AM,30.9,20.3,65,30.48,10.0,Calm,Calm,-,N/A,,Overcast,0,2013-11-29 08:55:00
4:15 AM,30.9,21.2,67,30.48,10.0,West,3.5,-,N/A,,Overcast,260,2013-11-29 09:15:00
4:35 AM,30.9,21.2,67,30.48,10.0,Calm,Calm,-,N/A,,Overcast,0,2013-11-29 09:35:00
4:55 AM,30.9,21.2,67,30.48,10.0,Calm,Calm,-,N/A,,Overcast,0,2013-11-29 09:55:00
5:15 AM,30.9,21.6,68,30.49,10.0,West,3.5,-,N/A,,Overcast,260,2013-11-29 10:15:00
5:35 AM,30.9,21.7,69,30.49,10.0,Calm,Calm,-,N/A,,Overcast,0,2013-11-29 10:35:00
5:55 AM,30.9,21.2,67,30.50,10.0,West,3.5,-,N/A,,Overcast,260,2013-11-29 10:55:00
6:15 AM,30.9,21.7,69,30.50,10.0,West,3.5,-,N/A,,Overcast,260,2013-11-29 11:15:00
6:34 AM,30.9,22.1,70,30.50,10.0,SSW,3.5,-,N/A,,Overcast,210,2013-11-29 11:34:00
6:55 AM,26.2,21.2,81,30.52,10.0,East,3.5,-,N/A,,Overcast,100,2013-11-29 11:55:00
7:15 AM,27.9,23.0,82,30.53,10.0,WSW,4.6,-,N/A,,Overcast,240,2013-11-29 12:15:00
7:34 AM,30.9,22.5,71,30.54,10.0,WSW,6.9,-,N/A,,Overcast,250,2013-11-29 12:34:00
7:55 AM,30.9,22.6,71,30.54,10.0,WSW,6.9,-,N/A,,Overcast,240,2013-11-29 12:55:00
8:15 AM,30.9,23.0,72,30.55,10.0,WSW,6.9,-,N/A,,Overcast,240,2013-11-29 13:15:00
8:34 AM,30.9,22.5,71,30.56,10.0,WSW,6.9,-,N/A,,Overcast,250,2013-11-29 13:34:00
8:55 AM,30.9,21.6,68,30.56,10.0,WSW,6.9,-,N/A,,Overcast,240,2013-11-29 13:55:00
9:15 AM,30.9,21.7,69,30.57,10.0,SW,5.8,-,N/A,,Overcast,230,2013-11-29 14:15:00
9:34 AM,30.9,21.9,69,30.58,10.0,WSW,5.8,-,N/A,,Overcast,240,2013-11-29 14:34:00
9:55 AM,31.3,21.9,68,30.58,10.0,WSW,8.1,-,N/A,,Overcast,240,2013-11-29 14:55:00
10:15 AM,31.8,22.1,67,30.59,10.0,WSW,5.8,-,N/A,,Overcast,250,2013-11-29 15:15:00
10:34 AM,32.0,21.9,66,30.60,10.0,WSW,5.8,-,N/A,,Overcast,250,2013-11-29 15:34:00
10:55 AM,32.0,21.7,66,30.60,10.0,WSW,5.8,-,N/A,,Overcast,240,2013-11-29 15:55:00
11:15 AM,32.0,21.9,66,30.60,10.0,WSW,5.8,-,N/A,,Overcast,250,2013-11-29 16:15:00
11:34 AM,32.0,22.1,67,30.60,10.0,WSW,6.9,-,N/A,,Overcast,240,2013-11-29 16:34:00
11:55 AM,32.0,21.9,66,30.60,10.0,WSW,6.9,-,N/A,,Overcast,250,2013-11-29 16:55:00
12:15 PM,32.0,20.7,63,30.59,10.0,SW,8.1,-,N/A,,Overcast,230,2013-11-29 17:15:00
12:35 PM,32.0,21.2,64,30.58,10.0,SSW,8.1,-,N/A,,Overcast,210,2013-11-29 17:35:00
12:55 PM,31.1,20.7,65,30.58,10.0,SW,5.8,-,N/A,,Overcast,230,2013-11-29 17:55:00
1:15 PM,31.8,19.6,61,30.58,10.0,WSW,6.9,-,0.01,,Overcast,240,2013-11-29 18:15:00
1:35 PM,32.0,20.7,63,30.57,10.0,SW,8.1,-,0.01,,Overcast,220,2013-11-29 18:35:00
1:55 PM,32.0,21.2,64,30.57,10.0,South,6.9,-,0.01,,Overcast,170,2013-11-29 18:55:00
2:15 PM,31.1,20.3,64,30.56,10.0,South,6.9,-,N/A,,Overcast,170,2013-11-29 19:15:00
2:35 PM,30.9,20.3,65,30.56,10.0,South,8.1,-,N/A,,Overcast,170,2013-11-29 19:35:00
2:55 PM,30.9,19.9,64,-9999,10.0,South,8.1,-,N/A,,Overcast,170,2013-11-29 19:55:00
3:15 PM,30.9,19.9,64,30.55,10.0,South,6.9,-,N/A,,Overcast,180,2013-11-29 20:15:00
3:35 PM,30.9,20.1,64,30.55,10.0,SSE,4.6,-,N/A,,Mostly Cloudy,150,2013-11-29 20:35:00
3:55 PM,30.9,20.3,65,30.56,10.0,South,5.8,-,N/A,,Scattered Clouds,170,2013-11-29 20:55:00
4:14 PM,30.9,20.3,65,30.55,10.0,South,5.8,-,N/A,,Overcast,170,2013-11-29 21:14:00
4:35 PM,30.9,20.3,65,30.55,10.0,SSE,4.6,-,N/A,,Mostly Cloudy,150,2013-11-29 21:35:00
4:55 PM,30.9,21.2,67,30.55,10.0,SSE,4.6,-,N/A,,Mostly Cloudy,150,2013-11-29 21:55:00
5:15 PM,30.9,22.3,70,30.55,10.0,SSE,4.6,-,N/A,,Mostly Cloudy,150,2013-11-29 22:15:00
5:35 PM,30.9,23.0,72,30.54,10.0,SSE,4.6,-,N/A,,Mostly Cloudy,150,2013-11-29 22:35:00
5:55 PM,30.9,23.4,74,30.54,10.0,SSE,4.6,-,N/A,,Mostly Cloudy,150,2013-11-29 22:55:00
6:15 PM,30.9,23.5,74,30.53,10.0,SSE,4.6,-,N/A,,Mostly Cloudy,150,2013-11-29 23:15:00
6:35 PM,30.9,23.7,75,30.53,10.0,SSE,5.8,-,N/A,,Mostly Cloudy,150,2013-11-29 23:35:00
6:55 PM,30.9,23.0,72,30.53,10.0,SSE,4.6,-,N/A,,Overcast,150,2013-11-29 23:55:00
7:15 PM,30.9,23.0,72,30.51,10.0,SSE,5.8,-,N/A,,Overcast,150,2013-11-30 00:15:00
7:35 PM,30.9,23.0,72,30.50,10.0,SE,5.8,-,N/A,,Overcast,140,2013-11-30 00:35:00
7:55 PM,30.9,22.8,72,30.50,10.0,SSE,5.8,-,N/A,,Overcast,150,2013-11-30 00:55:00
8:15 PM,30.9,22.5,71,30.49,10.0,SSE,6.9,-,N/A,,Overcast,150,2013-11-30 01:15:00
8:35 PM,30.9,22.5,71,30.49,10.0,SSE,8.1,-,N/A,,Overcast,160,2013-11-30 01:35:00
8:55 PM,30.9,22.5,71,30.49,10.0,SSE,9.2,-,N/A,,Overcast,150,2013-11-30 01:55:00
9:15 PM,30.9,22.6,71,30.48,10.0,SSE,10.4,-,N/A,,Overcast,150,2013-11-30 02:15:00
9:35 PM,30.9,22.3,70,30.48,10.0,SSE,10.4,-,N/A,,Overcast,150,2013-11-30 02:35:00
9:55 PM,30.9,21.9,69,30.48,10.0,SSE,8.1,-,N/A,,Scattered Clouds,160,2013-11-30 02:55:00
10:15 PM,28.4,19.4,69,30.47,10.0,SSE,9.2,-,N/A,,Scattered Clouds,150,2013-11-30 03:15:00
10:35 PM,28.4,19.4,69,30.46,10.0,SSE,11.5,16.1,N/A,,Scattered Clouds,150,2013-11-30 03:35:00
10:55 PM,28.4,19.4,69,30.45,10.0,SSE,10.4,-,N/A,,Mostly Cloudy,150,2013-11-30 03:55:00
11:15 PM,28.4,19.4,69,30.44,10.0,SSE,9.2,-,N/A,,Scattered Clouds,150,2013-11-30 04:15:00
11:35 PM,28.4,19.4,69,30.43,10.0,SE,9.2,-,N/A,,Mostly Cloudy,140,2013-11-30 04:35:00
11:55 PM,28.4,19.2,69,30.42,10.0,SE,9.2,-,N/A,,Overcast,140,2013-11-30 04:55:00